Location: Bittelbronn
(48.4454°N, 8.5870°E)
Time: 19:22:24
(UTC+00:00)

CZ-2C R/B - Pass Details

Date: 23 May 2024
Orbit: 784 x 868 km, 98.3° (Epoch: 23 June)

Event Time Altitude Azimuth Distance (km) Brightness Sun altitude
Exits shadow 00:47:48 - 140° (SE) 2,431 4.8 -18.3°
Reaches altitude 10° 00:48:02 10° 140° (SE) 2,339 4.7 -18.3°
Maximum altitude 00:52:56 46° 68° (ENE) 1,051 3.5 -18.0°
Drops below altitude 10° 00:57:52 10° 356° (N) 2,363 6.0 -17.7°
Sets 01:00:17 0° 351° (N) 3,303 6.8 -17.5°
